Hourly Weather Roundup
Issued by NWS Central Illinois

Home | Current Version | Previous Version | Text Only | Print | Product List | Glossary On
Versions: 1 2 3 4 5 6 7 8 9 10 11 12 13 14 15 16 17 18 19 20 21 22 23 24 25 26 27 28 29 30 31 32 33 34 35 36 37 38 39 40 41 42 43 44 45 46 47 48 49 50
000
NZUS43 KILX 221510
HWRILX

AREA WEATHER ROUNDUP
NATIONAL WEATHER SERVICE, LINCOLN IL
1000 AM CDT FRI MAY 22 2015


CITY           SKY/WX    TMP DP  RH WIND       PRES   REMARKS
BLOOMINGTON    SUNNY     67  47  48 W3        30.21R
CHAMPAIGN      SUNNY     67  48  50 NW6       30.20R
DANVILLE       SUNNY     62  48  60 CALM      30.17R
DECATUR        SUNNY     67  49  52 W5        30.21R
EFFINGHAM      SUNNY     64  45  49 W8        30.24S
FLORA          SUNNY     64  48  57 W7        30.25R
GALESBURG      SUNNY     68  46  46 NW3       30.20R
JACKSONVILLE   SUNNY     68  47  48 NW6       30.22R
LACON          SUNNY     65  47  51 CALM      30.19R
LAWRENCEVILLE  SUNNY     64  48  56 W7        30.25R
LITCHFIELD     SUNNY     63  47  57 W5        30.23S
$$


CITY           SKY/WX    TMP DP  RH WIND       PRES   REMARKS
LINCOLN        SUNNY     69  48  48 CALM      30.19S
MACOMB         SUNNY     67  44  43 CALM      30.22S
MATTOON        SUNNY     65  47  52 MISG      30.21R
MT CARMEL AP   SUNNY     64  46  52 SW10      30.24S
OLNEY-NOBLE AP SUNNY     63  50  63 W6        30.25S
PARIS          SUNNY     67  47  49 W7        30.21R
PEORIA         SUNNY     70  48  45 CALM      30.20R
PONTIAC        SUNNY     68  48  48 NE3       30.20R
RANTOUL        SUNNY     69  47  45 N3        30.19R
ROBINSON       SUNNY     63  47  57 W9        30.24S
SPRINGFIELD    SUNNY     68  47  46 VRB3      30.21S
TAYLORVILLE    SUNNY     63  48  59 W3        30.22S
$$

...REGIONAL REPORTS...


CITY           SKY/WX    TMP DP  RH WIND       PRES   REMARKS
CHICAGO O`HARE SUNNY     59  36  42 NE12      30.20R
KANKAKEE       SUNNY     65  49  55 NE8       30.19S
MOLINE         SUNNY     67  44  43 VRB3      30.19R
MOUNT VERNON   SUNNY     64  50  59 SW10      30.28R
PITTSFIELD     SUNNY     66  47  50 W3        30.23S
QUINCY         SUNNY     65  46  50 CALM      30.22R
ROCKFORD       MOSUNNY   62  37  39 E7        30.23R
$$


CITY           SKY/WX    TMP DP  RH WIND       PRES   REMARKS
BURLINGTON     SUNNY     66  49  54 CALM      30.20R
CEDAR RAPIDS   SUNNY     67  43  41 VRB5      30.20R
DES MOINES     CLOUDY    67  43  41 NW5       30.22R
KIRKSVILLE     MOSUNNY   67  49  52 N6        30.24R
OTTUMWA        MOSUNNY   64  48  56 NW5       30.21R
ST LOUIS       MOSUNNY   67  49  52 W7        30.25S
$$


CITY           SKY/WX    TMP DP  RH WIND       PRES   REMARKS
TERRE HAUTE    SUNNY     62  48  60 SW8       30.22R
EVANSVILLE     SUNNY     65  46  50 SW14      30.28S
INDIANAPOLIS   SUNNY     64  47  53 W9        30.19R
LAFAYETTE      SUNNY     61  48  62 W3        30.19R
MADISON        SUNNY     58  32  37 CALM      30.21S
MILWAUKEE      SUNNY     53  30  41 NE9       30.24R
$$





USA.gov is the U.S. government's official web portal to all federal, state and local government web resources and services.